Regional Weather Roundup
Issued by NWS

Home | Current Version | Previous Version | Text Only | Print | Product List | Glossary On
Versions: 1 2 3 4 5 6 7 8 9 10 11 12 13 14 15 16 17 18 19 20 21 22 23 24 25 26 27 28 29 30 31 32 33 34 35 36 37 38 39 40 41 42 43 44 45 46 47 48 49 50
000
ASUS43 KOAX 240810
RWRNE

WEATHER ROUNDUP FOR NEBRASKA
NATIONAL WEATHER SERVICE OMAHA NE
200 AM CST FRI FEB 24 2017

NOTES: SATELLITE DATA IS BEING USED TO AUGMENT CLOUD COVER ABOVE
       12000 FEET.
       "FAIR" INDICATES FEW OR NO CLOUDS BELOW 12,000 FEET WITH NO
       SIGNIFICANT WEATHER AND/OR OBSTRUCTIONS TO VISIBILITY.

  * THESE STATIONS DO NOT REPORT WEATHER SUCH AS RAIN...SNOW OR FOG.

NEZ001>004-019>022-054>056-240900-
NEBRASKA PANHANDLE

CITY           SKY/WX    TMP DP  RH WIND       PRES   REMARKS
SCOTTSBLUFF    LGT SNOW  22  17  81 N9        29.90S WCI  12
ALLIANCE       LGT SNOW  20  17  88 N15       29.88R FOG     WCI   6
CHADRON        LGT SNOW  22  19  89 NE14      29.97S FOG     WCI   9
KIMBALL        LGT SNOW  20  19  98 N14       29.85R WCI   6
SIDNEY         LGT SNOW  20  16  84 N15       29.85R FOG     WCI   6
$$

NEZ057>060-069>072-079>082-240900-
SOUTHWEST NEBRASKA

CITY           SKY/WX    TMP DP  RH WIND       PRES   REMARKS
NORTH PLATTE   LGT SNOW  24  19  81 N21G26    29.80S WCI   9
IMPERIAL       LGT SNOW  23  20  88 N15G24    29.83R FOG     WCI  10
LEXINGTON      CLOUDY    26  22  87 N20G28    29.77S WCI  12
MCCOOK         CLOUDY    25  22  88 N18       29.79R WCI  11
OGALLALA       LGT SNOW  25  22  88 N18       29.84S WCI  11
$$

NEZ005>010-023>029-035>040-094-240900-
NORTH CENTRAL NEBRASKA

CITY           SKY/WX    TMP DP  RH WIND       PRES   REMARKS
VALENTINE      CLOUDY    24  20  84 N20G29    29.90R FOG     WCI  10
AINSWORTH      CLOUDY    23  22  97 N25G35    29.87R WCI   7
BROKEN BOW     FOG       24  22  91 N25G36    29.76S VSB 3/4 WCI   8
O`NEILL        CLOUDY    25  24  96 N21G31    29.82S WCI  11
ORD            LGT SNOW  25  21  85 N20G28    29.76S VSB 1   WCI  11
THEDFORD       LGT SNOW  23  21  92 N20G28    29.84R WCI   9
$$

NEZ041-046>049-061>064-073>077-083>087-240900-
SOUTH CENTRAL NEBRASKA

CITY           SKY/WX    TMP DP  RH WIND       PRES   REMARKS
GRAND ISLAND   FRZ RAIN  27  27 100 N20G26    29.72R FOG     WCI  13
AURORA         MIX PCPN  29  28  96 N17G24    29.70R WCI  17
HASTINGS       FRZ RAIN  28  26  92 N21       29.71R FOG     WCI  15
HEBRON         CLOUDY    32  31  96 N12G20    29.66S FOG     WCI  23
HOLDREGE       CLOUDY    26  24  91 N15G21    29.75R FOG     WCI  14
KEARNEY *      CLOUDY    27  23  86 N21G26    29.74S WCI  13
YORK           LGT RAIN  30  30 100 N16       29.67R WCI  19
$$

NEZ011>018-030>034-042>045-240900-
NORTHEAST NEBRASKA

CITY           SKY/WX    TMP DP  RH WIND       PRES   REMARKS
NORFOLK        LGT SNOW  27  24  89 N21G31    29.72R FOG     WCI  13
ALBION         CLOUDY    28  24  83 N22G31    29.73R HAZE    WCI  14
BLAIR          CLOUDY    33  31  91 N21G30    29.61R WCI  21
FREMONT        CLOUDY    32  31  98 N12G20    29.67R WCI  23
TEKAMAH        CLOUDY    32  29  88 N20G32    29.66S WCI  20
WAYNE          MIX PCPN  29  27  94 N20G29    29.74R WCI  16
$$

NEZ050>053-065>068-078-088>093-240900-
SOUTHEAST NEBRASKA

CITY           SKY/WX    TMP DP  RH WIND       PRES   REMARKS
LINCOLN        CLOUDY    33  31  92 N21       29.64R WCI  21
OMAHA EPPLEY   CLOUDY    34  29  82 N18G29    29.62R WCI  23
BEATRICE       CLOUDY    33  33  98 N15       29.62R WCI  23
FALLS CITY     CLOUDY    37  34  89 NW16G22   29.55R WCI  28
NEBRASKA CITY  CLOUDY    34  34 100 N20G25    29.57R WCI  23
PLATTSMOUTH    CLOUDY    34  31  86 N12       29.59R WCI  26
$$

NEZ044-045-051>053-067-240900-
OMAHA AREA

CITY           SKY/WX    TMP DP  RH WIND       PRES   REMARKS
OMAHA EPPLEY   CLOUDY    34  29  82 N18G29    29.62R WCI  23
BLAIR          CLOUDY    33  31  91 N21G30    29.61R WCI  21
FREMONT        CLOUDY    32  31  98 N12G20    29.67R WCI  23
MILLARD        CLOUDY    36  32  87 N8        29.62R WCI  29
OFFUTT AFB     CLOUDY    35  31  85 N16G25    29.60R WCI  25
PLATTSMOUTH    CLOUDY    34  31  86 N12       29.59R WCI  26
WAHOO          MIX PCPN  33  31  93 N20G28    29.64R WCI  21
$$




USA.gov is the U.S. government's official web portal to all federal, state and local government web resources and services.